HUN84RA EKCH-EHAM

Flight info

Callsign HUN84RA
Flight time 1h 8m
Altitude 36000
Route LANGO M611 ALASA DCT WANZA N872 KUBAT T200 BLUFA
Aircraft A20N/M-SDE2E3FGHIJ1RWXY/LB1

Departure

Time 2026-05-05 15:14
Airport Copenhagen Kastrup Airport (EKCH)

Arrival

Time 2026-05-05 16:22
Airport Amsterdam Airport Schiphol (EHAM)
Time Latitude Longitude Altitude Speed Heading
2026-05-05 14:41 55.62854 12.64250 18 ft 0 kts 100°
2026-05-05 15:02 55.62855 12.64236 18 ft 2 kts 100°
2026-05-05 15:02 55.62857 12.64209 18 ft 2 kts 88°
2026-05-05 15:02 55.62855 12.64183 18 ft 2 kts 79°
2026-05-05 15:02 55.62851 12.64156 18 ft 2 kts 70°
2026-05-05 15:03 55.62845 12.64132 18 ft 2 kts 65°
2026-05-05 15:03 55.62839 12.64106 17 ft 2 kts 67°
2026-05-05 15:03 55.62833 12.64082 17 ft 2 kts 66°
2026-05-05 15:03 55.62826 12.64057 16 ft 2 kts 66°
2026-05-05 15:04 55.62820 12.64032 16 ft 2 kts 66°
2026-05-05 15:04 55.62812 12.64009 15 ft 2 kts 50°
2026-05-05 15:04 55.62802 12.63990 15 ft 2 kts 39°
2026-05-05 15:04 55.62790 12.63975 15 ft 2 kts 31°
2026-05-05 15:05 55.62777 12.63928 15 ft 2 kts 98°
2026-05-05 15:05 55.62782 12.63903 15 ft 2 kts 121°
2026-05-05 15:05 55.62789 12.63879 15 ft 1 kts 113°
2026-05-05 15:06 55.62790 12.63874 15 ft 0 kts 114°
2026-05-05 15:08 55.62785 12.63893 15 ft 4 kts 118°
2026-05-05 15:08 55.62743 12.63912 15 ft 8 kts 205°
2026-05-05 15:08 55.62685 12.63852 15 ft 11 kts 212°
2026-05-05 15:08 55.62604 12.63781 15 ft 13 kts 194°
2026-05-05 15:09 55.62507 12.63783 15 ft 14 kts 161°
2026-05-05 15:09 55.62425 12.63892 15 ft 15 kts 128°
2026-05-05 15:09 55.62362 12.64057 15 ft 16 kts 123°
2026-05-05 15:09 55.62296 12.64235 15 ft 17 kts 123°
2026-05-05 15:10 55.62215 12.64399 15 ft 18 kts 160°
2026-05-05 15:10 55.62088 12.64444 15 ft 18 kts 169°
2026-05-05 15:10 55.61962 12.64486 15 ft 18 kts 170°
2026-05-05 15:10 55.61833 12.64528 15 ft 18 kts 169°
2026-05-05 15:11 55.61704 12.64569 15 ft 18 kts 178°
2026-05-05 15:11 55.61587 12.64466 15 ft 18 kts 213°
2026-05-05 15:11 55.61476 12.64337 15 ft 19 kts 213°
2026-05-05 15:11 55.61368 12.64212 16 ft 18 kts 213°
2026-05-05 15:12 55.61258 12.64086 17 ft 18 kts 213°
2026-05-05 15:12 55.61148 12.63959 16 ft 19 kts 213°
2026-05-05 15:12 55.61038 12.63834 16 ft 19 kts 213°
2026-05-05 15:12 55.60928 12.63707 17 ft 18 kts 213°
2026-05-05 15:13 55.60812 12.63591 15 ft 19 kts 180°
2026-05-05 15:13 55.60713 12.63731 15 ft 18 kts 129°
2026-05-05 15:13 55.60717 12.63931 15 ft 19 kts 46°
2026-05-05 15:13 55.60990 12.64353 15 ft 87 kts 41°
2026-05-05 15:14 55.61610 12.65322 19 ft 146 kts 43°
2026-05-05 15:14 55.62400 12.66604 450 ft 159 kts 39°
2026-05-05 15:14 55.63222 12.67891 1076 ft 160 kts 38°
2026-05-05 15:14 55.64072 12.69167 1674 ft 164 kts 37°
2026-05-05 15:15 55.64991 12.70524 2108 ft 180 kts 37°
2026-05-05 15:15 55.65987 12.72030 2536 ft 197 kts 38°
2026-05-05 15:15 55.67076 12.73673 2966 ft 214 kts 38°
2026-05-05 15:15 55.68269 12.75465 3374 ft 236 kts 38°
2026-05-05 15:16 55.69538 12.77450 3889 ft 253 kts 46°
2026-05-05 15:16 55.70379 12.80220 4630 ft 266 kts 75°
2026-05-05 15:16 55.70391 12.83484 5477 ft 273 kts 103°
2026-05-05 15:16 55.69540 12.86478 6255 ft 280 kts 131°
2026-05-05 15:17 55.67949 12.88476 7030 ft 284 kts 159°
2026-05-05 15:17 55.66106 12.89622 7839 ft 287 kts 163°
2026-05-05 15:17 55.64212 12.90758 8674 ft 290 kts 164°
2026-05-05 15:17 55.62270 12.91841 9457 ft 291 kts 174°
2026-05-05 15:18 55.60268 12.91709 10220 ft 285 kts 201°
2026-05-05 15:18 55.58530 12.90112 10774 ft 288 kts 224°
2026-05-05 15:18 55.57093 12.87509 11165 ft 302 kts 230°
2026-05-05 15:18 55.55589 12.84647 11501 ft 321 kts 230°
2026-05-05 15:19 55.54020 12.81722 11848 ft 337 kts 229°
2026-05-05 15:19 55.52530 12.78495 12464 ft 340 kts 241°
2026-05-05 15:19 55.51609 12.74685 13248 ft 338 kts 256°
2026-05-05 15:19 55.51277 12.70579 14026 ft 339 kts 266°
2026-05-05 15:20 55.51125 12.66332 14726 ft 342 kts 266°
2026-05-05 15:20 55.50978 12.61995 15407 ft 345 kts 266°
2026-05-05 15:20 55.50828 12.57727 16058 ft 348 kts 266°
2026-05-05 15:20 55.50671 12.53435 16694 ft 351 kts 266°
2026-05-05 15:21 55.50504 12.48983 17325 ft 354 kts 265°
2026-05-05 15:21 55.50338 12.44636 17925 ft 356 kts 265°
2026-05-05 15:21 55.50165 12.40183 18502 ft 359 kts 265°
2026-05-05 15:21 55.49988 12.35715 19095 ft 362 kts 265°
2026-05-05 15:22 55.49810 12.31259 19663 ft 364 kts 264°
2026-05-05 15:22 55.49417 12.26755 20222 ft 367 kts 255°
2026-05-05 15:22 55.48518 12.22505 20779 ft 370 kts 244°
2026-05-05 15:22 55.47141 12.18551 21292 ft 375 kts 236°
2026-05-05 15:23 55.45586 12.14854 21789 ft 378 kts 235°
2026-05-05 15:23 55.43994 12.11136 22290 ft 381 kts 235°
2026-05-05 15:23 55.42379 12.07377 22762 ft 384 kts 235°
2026-05-05 15:23 55.40772 12.03634 23242 ft 387 kts 235°
2026-05-05 15:24 55.39119 11.99791 23703 ft 390 kts 235°
2026-05-05 15:24 55.37476 11.95969 24144 ft 393 kts 235°
2026-05-05 15:24 55.35832 11.92150 24567 ft 395 kts 235°
2026-05-05 15:24 55.34161 11.88275 24970 ft 398 kts 235°
2026-05-05 15:25 55.32464 11.84341 25362 ft 401 kts 235°
2026-05-05 15:25 55.30774 11.80434 25753 ft 404 kts 235°
2026-05-05 15:25 55.29058 11.76475 26131 ft 406 kts 235°
2026-05-05 15:25 55.27339 11.72514 26486 ft 409 kts 235°
2026-05-05 15:26 55.25604 11.68454 26835 ft 411 kts 236°
2026-05-05 15:26 55.24005 11.64328 27182 ft 412 kts 239°
2026-05-05 15:26 55.22440 11.60074 27524 ft 414 kts 239°
2026-05-05 15:26 55.20859 11.55798 27836 ft 417 kts 239°
2026-05-05 15:27 55.19275 11.51522 28149 ft 419 kts 239°
2026-05-05 15:27 55.17698 11.47272 28455 ft 420 kts 239°
2026-05-05 15:27 55.16086 11.42932 28832 ft 420 kts 239°
2026-05-05 15:27 55.14499 11.38666 29254 ft 419 kts 239°
2026-05-05 15:28 55.12920 11.34430 29667 ft 417 kts 238°
2026-05-05 15:28 55.11328 11.30163 30059 ft 417 kts 238°
2026-05-05 15:28 55.09747 11.25931 30445 ft 416 kts 238°
2026-05-05 15:28 55.08149 11.21665 30823 ft 415 kts 238°
2026-05-05 15:29 55.06571 11.17457 31173 ft 415 kts 238°
2026-05-05 15:29 55.05009 11.13301 31505 ft 414 kts 238°
2026-05-05 15:29 55.03413 11.09060 31853 ft 413 kts 238°
2026-05-05 15:29 55.01840 11.04889 32165 ft 413 kts 238°
2026-05-05 15:30 55.00252 11.00685 32485 ft 412 kts 238°
2026-05-05 15:30 54.98700 10.96505 32797 ft 411 kts 239°
2026-05-05 15:30 54.97245 10.92171 33097 ft 410 kts 242°
2026-05-05 15:30 54.95950 10.87814 33369 ft 410 kts 245°
2026-05-05 15:31 54.94770 10.83290 33651 ft 409 kts 248°
2026-05-05 15:31 54.93729 10.78673 33937 ft 408 kts 250°
2026-05-05 15:31 54.92837 10.74035 34188 ft 407 kts 253°
2026-05-05 15:31 54.92079 10.69315 34397 ft 407 kts 255°
2026-05-05 15:32 54.91360 10.64543 34563 ft 409 kts 255°
2026-05-05 15:32 54.90632 10.59710 34734 ft 410 kts 255°
2026-05-05 15:32 54.89908 10.54917 34898 ft 410 kts 255°
2026-05-05 15:32 54.89182 10.50125 35025 ft 411 kts 255°
2026-05-05 15:33 54.88452 10.45321 35160 ft 411 kts 255°
2026-05-05 15:33 54.87725 10.40546 35281 ft 411 kts 255°
2026-05-05 15:33 54.86985 10.35709 35388 ft 412 kts 255°
2026-05-05 15:33 54.86248 10.30901 35497 ft 413 kts 255°
2026-05-05 15:34 54.85502 10.26046 35598 ft 414 kts 255°
2026-05-05 15:34 54.84015 10.16427 35785 ft 414 kts 255°
2026-05-05 15:35 54.82459 10.06697 35884 ft 416 kts 252°
2026-05-05 15:35 54.80445 9.97303 35893 ft 416 kts 247°
2026-05-05 15:36 54.77884 9.88336 35898 ft 416 kts 242°
2026-05-05 15:36 54.74868 9.79819 35899 ft 416 kts 239°
2026-05-05 15:37 54.71785 9.71338 35895 ft 416 kts 239°
2026-05-05 15:37 54.68604 9.62726 35894 ft 417 kts 235°
2026-05-05 15:38 54.64707 9.54974 35900 ft 417 kts 230°
2026-05-05 15:38 54.60704 9.47430 35899 ft 417 kts 230°
2026-05-05 15:39 54.56707 9.39877 35902 ft 416 kts 230°
2026-05-05 15:39 54.52767 9.32433 35903 ft 416 kts 229°
2026-05-05 15:40 54.48846 9.25032 35897 ft 415 kts 229°
2026-05-05 15:40 54.44933 9.17672 35902 ft 415 kts 229°
2026-05-05 15:41 54.41038 9.10368 35904 ft 415 kts 229°
2026-05-05 15:41 54.37151 9.03096 35905 ft 415 kts 229°
2026-05-05 15:42 54.33285 8.95885 35905 ft 414 kts 229°
2026-05-05 15:42 54.29388 8.88636 35907 ft 414 kts 229°
2026-05-05 15:43 54.25482 8.81396 35906 ft 414 kts 229°
2026-05-05 15:43 54.21588 8.74195 35904 ft 417 kts 229°
2026-05-05 15:44 54.17797 8.67210 35903 ft 416 kts 229°
2026-05-05 15:44 54.13873 8.60003 35907 ft 416 kts 229°
2026-05-05 15:45 54.09932 8.52812 35909 ft 416 kts 229°
2026-05-05 15:45 54.05983 8.45681 35903 ft 416 kts 229°
2026-05-05 15:46 54.02033 8.38568 35903 ft 416 kts 229°
2026-05-05 15:46 53.98058 8.31424 35904 ft 416 kts 228°
2026-05-05 15:47 53.94101 8.24330 35911 ft 416 kts 228°
2026-05-05 15:47 53.90135 8.17244 35909 ft 416 kts 228°
2026-05-05 15:48 53.86155 8.10152 35914 ft 414 kts 228°
2026-05-05 15:48 53.82194 8.03121 35909 ft 415 kts 228°
2026-05-05 15:49 53.78223 7.96090 35894 ft 415 kts 228°
2026-05-05 15:49 53.74270 7.89114 35909 ft 415 kts 228°
2026-05-05 15:50 53.70271 7.82071 35908 ft 413 kts 227°
2026-05-05 15:50 53.66318 7.75131 35901 ft 414 kts 227°
2026-05-05 15:51 53.62325 7.68143 35897 ft 415 kts 228°
2026-05-05 15:51 53.58335 7.61177 35907 ft 414 kts 227°
2026-05-05 15:52 53.54359 7.54259 35897 ft 412 kts 227°
2026-05-05 15:52 53.50387 7.47365 35906 ft 413 kts 227°
2026-05-05 15:53 53.46397 7.40464 35905 ft 412 kts 227°
2026-05-05 15:53 53.42409 7.33583 35636 ft 411 kts 226°
2026-05-05 15:53 53.40403 7.30131 35435 ft 408 kts 226°
2026-05-05 15:54 53.38441 7.26757 35232 ft 406 kts 226°
2026-05-05 15:54 53.36488 7.23405 35023 ft 403 kts 226°
2026-05-05 15:54 53.34543 7.20066 34777 ft 400 kts 226°
2026-05-05 15:54 53.32615 7.16761 34504 ft 399 kts 226°
2026-05-05 15:55 53.30680 7.13456 34126 ft 400 kts 226°
2026-05-05 15:55 53.28742 7.10149 33623 ft 401 kts 226°
2026-05-05 15:55 53.26805 7.06833 33008 ft 401 kts 226°
2026-05-05 15:55 53.24846 7.03450 32267 ft 402 kts 226°
2026-05-05 15:56 53.22895 7.00079 31515 ft 403 kts 225°
2026-05-05 15:56 53.20928 6.96688 30748 ft 404 kts 225°
2026-05-05 15:56 53.18953 6.93293 29973 ft 405 kts 225°
2026-05-05 15:56 53.16963 6.89885 29166 ft 407 kts 225°
2026-05-05 15:57 53.14981 6.86491 28345 ft 409 kts 225°
2026-05-05 15:57 53.12986 6.83079 27643 ft 408 kts 225°
2026-05-05 15:57 53.11021 6.79722 27138 ft 404 kts 225°
2026-05-05 15:57 53.09041 6.76341 26613 ft 400 kts 226°
2026-05-05 15:58 53.07075 6.72992 26084 ft 397 kts 226°
2026-05-05 15:58 53.05170 6.69750 25569 ft 394 kts 226°
2026-05-05 15:58 53.03261 6.66504 25060 ft 391 kts 226°
2026-05-05 15:58 53.01365 6.63287 24558 ft 389 kts 226°
2026-05-05 15:59 52.99463 6.60063 24053 ft 387 kts 226°
2026-05-05 15:59 52.97586 6.56886 23547 ft 385 kts 226°
2026-05-05 15:59 52.95704 6.53702 23041 ft 384 kts 226°
2026-05-05 15:59 52.93816 6.50512 22516 ft 383 kts 226°
2026-05-05 16:00 52.91912 6.47297 21988 ft 381 kts 226°
2026-05-05 16:00 52.89989 6.44062 21457 ft 380 kts 226°
2026-05-05 16:00 52.88051 6.40803 20907 ft 379 kts 226°
2026-05-05 16:00 52.86110 6.37540 20348 ft 379 kts 226°
2026-05-05 16:01 52.84230 6.34149 19778 ft 379 kts 229°
2026-05-05 16:01 52.82490 6.30590 19225 ft 378 kts 232°
2026-05-05 16:01 52.80889 6.26885 18723 ft 375 kts 234°
2026-05-05 16:01 52.79341 6.23200 18187 ft 374 kts 234°
2026-05-05 16:02 52.77770 6.19462 17641 ft 373 kts 234°
2026-05-05 16:02 52.76230 6.15809 17112 ft 372 kts 235°
2026-05-05 16:02 52.74674 6.12125 16580 ft 371 kts 235°
2026-05-05 16:02 52.73166 6.08557 16055 ft 369 kts 235°
2026-05-05 16:03 52.71713 6.05128 15556 ft 368 kts 236°
2026-05-05 16:03 52.70257 6.01690 15042 ft 367 kts 236°
2026-05-05 16:03 52.68822 5.98306 14536 ft 366 kts 236°
2026-05-05 16:03 52.67366 5.94881 14022 ft 364 kts 236°
2026-05-05 16:04 52.65924 5.91489 13521 ft 363 kts 236°
2026-05-05 16:04 52.64527 5.88206 13030 ft 361 kts 236°
2026-05-05 16:04 52.64090 5.87179 12875 ft 361 kts 236°
2026-05-05 16:04 52.63341 5.85421 12611 ft 360 kts 236°
2026-05-05 16:05 52.62170 5.82676 12203 ft 358 kts 236°
2026-05-05 16:05 52.60669 5.79166 11663 ft 356 kts 236°
2026-05-05 16:05 52.59163 5.75649 11130 ft 354 kts 236°
2026-05-05 16:05 52.57670 5.72166 10680 ft 349 kts 236°
2026-05-05 16:06 52.56224 5.68798 10444 ft 337 kts 236°
2026-05-05 16:06 52.54858 5.65624 10310 ft 323 kts 236°
2026-05-05 16:06 52.53566 5.62623 10143 ft 311 kts 236°
2026-05-05 16:06 52.52294 5.59672 9990 ft 298 kts 236°
2026-05-05 16:07 52.51197 5.56762 9869 ft 286 kts 244°
2026-05-05 16:07 52.50378 5.53650 9875 ft 286 kts 251°
2026-05-05 16:07 52.49696 5.50507 9890 ft 288 kts 252°
2026-05-05 16:07 52.49024 5.47321 9896 ft 288 kts 252°
2026-05-05 16:08 52.48326 5.44023 9898 ft 290 kts 252°
2026-05-05 16:08 52.47636 5.40791 9899 ft 290 kts 252°
2026-05-05 16:08 52.46933 5.37521 9902 ft 290 kts 252°
2026-05-05 16:08 52.46237 5.34295 9915 ft 290 kts 251°
2026-05-05 16:09 52.45528 5.31016 9893 ft 290 kts 251°
2026-05-05 16:09 52.44810 5.27710 9909 ft 291 kts 251°
2026-05-05 16:09 52.44306 5.25393 9901 ft 290 kts 251°
2026-05-05 16:09 52.43894 5.23498 9902 ft 290 kts 251°
2026-05-05 16:10 52.43200 5.20309 9899 ft 290 kts 251°
2026-05-05 16:10 52.42495 5.17079 9888 ft 290 kts 251°
2026-05-05 16:10 52.41812 5.13954 9907 ft 291 kts 251°
2026-05-05 16:10 52.41121 5.10803 9887 ft 291 kts 251°
2026-05-05 16:11 52.40425 5.07622 9879 ft 292 kts 251°
2026-05-05 16:11 52.38341 4.98156 9071 ft 293 kts 251°
2026-05-05 16:12 52.37647 4.95010 8713 ft 290 kts 251°
2026-05-05 16:12 52.36292 4.88882 8036 ft 285 kts 251°
2026-05-05 16:13 52.34226 4.79579 7272 ft 266 kts 251°
2026-05-05 16:13 52.33584 4.76675 7186 ft 253 kts 255°
2026-05-05 16:13 52.33361 4.73752 7023 ft 245 kts 278°
2026-05-05 16:14 52.34096 4.68325 6424 ft 241 kts 286°
2026-05-05 16:14 52.34441 4.62899 5796 ft 244 kts 251°
2026-05-05 16:15 52.32668 4.58156 5254 ft 246 kts 238°
2026-05-05 16:15 52.30803 4.53472 4698 ft 245 kts 239°
2026-05-05 16:16 52.28971 4.48765 4148 ft 245 kts 239°
2026-05-05 16:16 52.27077 4.44149 3577 ft 246 kts 224°
2026-05-05 16:17 52.23949 4.43555 3002 ft 231 kts 143°
2026-05-05 16:17 52.22584 4.45210 2999 ft 228 kts 139°
2026-05-05 16:18 52.21010 4.49535 2772 ft 214 kts 99°
2026-05-05 16:18 52.20787 4.51948 2597 ft 202 kts 78°
2026-05-05 16:18 52.22050 4.56018 2130 ft 190 kts 53°
2026-05-05 16:19 52.22832 4.57880 2000 ft 182 kts 55°
2026-05-05 16:19 52.23526 4.59633 2019 ft 169 kts 56°
2026-05-05 16:19 52.24757 4.62861 1535 ft 144 kts 56°
2026-05-05 16:20 52.25847 4.65728 1138 ft 141 kts 57°
2026-05-05 16:20 52.26919 4.68641 737 ft 140 kts 56°
2026-05-05 16:21 52.28047 4.71468 322 ft 140 kts 55°
2026-05-05 16:22 52.29617 4.75563 -3 ft 101 kts 54°
2026-05-05 16:22 52.30082 4.76584 -2 ft 26 kts 27°
2026-05-05 16:23 52.30308 4.76816 -1 ft 12 kts 54°
2026-05-05 16:23 52.30359 4.76946 0 ft 12 kts 57°
2026-05-05 16:23 52.30448 4.77176 4 ft 13 kts 58°
2026-05-05 16:24 52.30521 4.77361 6 ft 18 kts 57°
2026-05-05 16:24 52.30597 4.77539 6 ft 17 kts 32°
2026-05-05 16:24 52.30828 4.77564 8 ft 15 kts 311°
2026-05-05 16:25 52.30838 4.77401 11 ft 13 kts 274°
2026-05-05 16:25 52.30846 4.77168 12 ft 4 kts 274°
2026-05-05 16:25 52.30854 4.77113 11 ft 5 kts 321°
2026-05-05 16:26 52.30889 4.77108 12 ft 1 kts
2026-05-05 16:26 52.30899 4.77109 12 ft 0 kts